Погода в Назартепе

Узбекистан     38°45′23″N   65°29′29″E
темп.,
°C
ветер,
м/с
пор.,
м/с
влажн.,
%
обл.,
%
осадки,
мм/ч
давл.,
гПа
погр.,
м
27 февраля, сб
сб2723:00−3ссз23240 0.0 103073
02:00−3ссв122471 0.0 102947
05:00−2ссв122385 0.0 1029107
08:00−1юв1122100 0.0 103074
11:00+3ююз231879 0.0 1030653
14:00+6юз44210 0.0 1028969
17:00+7юз22200 0.0 1027878
20:00+3ссз11270 0.0 102822
28 февраля, вс
вс2823:00+3св23270 0.0 102722
02:00+2всв34290 0.0 102535
05:00+2всв44420 0.0 102361
08:00+2всв34400 0.0 102381
11:00+10св45230 0.0 1021465
14:00+14св33170 0.0 1018949
17:00+15всв22160 0.0 10171091
20:00+10всв34270 0.0 101831
1 марта, пн
пн123:00+9в343312 0.0 101823
02:00+8юв343498 0.0 101823
05:00+6юв233899 0.0 101722
08:00+7юв233029 0.0 101823
11:00+17ююз591615 0.0 1018576
14:00+21ююз810120 0.0 10171866
17:00+20ююз79150 0.0 10161663
20:00+15ю452165 0.0 101866
2 марта, вт
вт223:00+13ссз332582 0.0 101924
02:00+12ссв3425100 0.0 101965
05:00+11ссв3428100 0.0 101837
08:00+12ссв2327100 0.0 102025
11:00+16сз1118100 0.0 1020277
14:00+18ссз5518100 0.0 1019697
17:00+17сз4522100 0.0 1019856
20:00+13с353599 0.0 1020116
3 марта, ср
ср323:00+12св224398 0.0 102023
02:00+10сз115595 0.0 102023
05:00+10ссв235296 0.0 101926
08:00+10ссз4540100 0.0 1020144
11:00+14ссз332899 0.0 1020464
14:00+16зюз132792 0.0 10181453
17:00+17сз112965 0.0 10161459
20:00+13ссв343514 0.0 101679